Regional Weather Roundup
Issued by NWS

Home | Current Version | Previous Version | Text Only | Print | Product List | Glossary Off
Versions: 1 2 3 4 5 6 7 8 9 10 11 12 13 14 15 16 17 18 19 20 21 22 23 24 25 26 27 28 29 30 31 32 33 34 35 36 37 38 39 40 41 42 43 44 45 46 47 48 49 50

000
ASUS43 KOAX 050210
RWRNE

WEATHER ROUNDUP FOR NEBRASKA
NATIONAL WEATHER SERVICE OMAHA NE
900 PM CDT TUE AUG 04 2015

NOTES: SATELLITE DATA IS BEING USED TO AUGMENT CLOUD COVER ABOVE
       12000 FEET.
       "FAIR" INDICATES FEW OR NO CLOUDS BELOW 12,000 FEET WITH NO
       SIGNIFICANT WEATHER AND/OR OBSTRUCTIONS TO VISIBILITY.

  * THESE STATIONS DO NOT REPORT WEATHER SUCH AS RAIN...SNOW OR FOG.

NEZ001>004-019>022-054>056-050300-
NEBRASKA PANHANDLE

CITY           SKY/WX    TMP DP  RH WIND       PRES   REMARKS
SCOTTSBLUFF    MOCLDY    69  65  86 SE3       30.02R
ALLIANCE       MOCLDY    69  60  73 SE3       30.02R
CHADRON        MOCLDY    72  61  68 W3        29.98R
KIMBALL        PTCLDY    71  56  59 S3        30.06R
SIDNEY         PTCLDY    68  59  73 S5        30.04R
$$

NEZ057>060-069>072-079>082-050300-
SOUTHWEST NEBRASKA

CITY           SKY/WX    TMP DP  RH WIND       PRES   REMARKS
NORTH PLATTE   MOCLDY    67  64  90 CALM      29.98S
IMPERIAL       MOCLDY    69  63  81 NE7       29.98R
LEXINGTON      CLOUDY    65  64  95 SW5       29.98R
MCCOOK         CLOUDY    65  63  93 NW6       29.97R
OGALLALA       MOCLDY    69  63  80 NE6       30.00R
$$

NEZ005>010-023>029-035>040-094-050300-
NORTH CENTRAL NEBRASKA

CITY           SKY/WX    TMP DP  RH WIND       PRES   REMARKS
AINSWORTH      MOCLDY    71  66  85 SE5       29.98S
BROKEN BOW     CLOUDY    67  64  90 N7        29.98R
O`NEILL        CLOUDY    72  66  81 E6        29.97S
ORD            CLOUDY    65  62  90 W3        29.96R
THEDFORD       CLOUDY    71  64  77 SE5       29.99R
$$

NEZ041-046>049-061>064-073>077-083>087-050300-
SOUTH CENTRAL NEBRASKA

CITY           SKY/WX    TMP DP  RH WIND       PRES   REMARKS
GRAND ISLAND   CLOUDY    67  64  90 CALM      29.96R
AURORA         CLOUDY    67  67  97 CALM      29.95R
HASTINGS       LGT RAIN  67  63  87 E5        29.95R
HEBRON         LGT RAIN  71  64  80 CALM      29.92F
HOLDREGE       CLOUDY    64  62  94 CALM      29.96F
KEARNEY *      CLOUDY    64  61  88 SW9       29.94R
YORK           CLOUDY    68  64  88 NE8       29.94F
$$

NEZ011>018-030>034-042>045-050300-
NORTHEAST NEBRASKA

CITY           SKY/WX    TMP DP  RH WIND       PRES   REMARKS
NORFOLK        CLOUDY    70  64  81 E7        29.96R
ALBION         CLOUDY    71  65  83 E6        29.95F
BLAIR          CLOUDY    71  65  80 E6        29.97S
COLUMBUS *     CLOUDY    72  64  78 CALM      29.97R
FREMONT        CLOUDY    73  66  77 SE10      29.98R
TEKAMAH        CLOUDY    72  66  81 E5        29.96R
WAYNE          CLOUDY    71  65  79 NE5       29.98R
$$

NEZ050>053-065>068-078-088>093-050300-
SOUTHEAST NEBRASKA

CITY           SKY/WX    TMP DP  RH WIND       PRES   REMARKS
LINCOLN        CLOUDY    74  70  87 E7        29.96S
OMAHA EPPLEY   CLOUDY    74  66  76 SE9       29.96S
BEATRICE       CLOUDY    73  69  86 S5        29.96S
FALLS CITY     CLOUDY    73  68  84 CALM      29.95R
NEBRASKA CITY  CLOUDY    74  67  77 S3        29.97S
PLATTSMOUTH    CLOUDY    71  69  94 W6        29.99R THUNDER
$$

NEZ044-045-051>053-067-050300-
OMAHA AREA

CITY           SKY/WX    TMP DP  RH WIND       PRES   REMARKS
OMAHA EPPLEY   CLOUDY    74  66  76 SE9       29.96S
BLAIR          CLOUDY    71  65  80 E6        29.97S
FREMONT        CLOUDY    73  66  77 SE10      29.98R
MILLARD        TSTM      72  69  91 SE3       29.96S
OFFUTT AFB     MOCLDY    72  68  87 SW8       29.97R THUNDER
PLATTSMOUTH    CLOUDY    71  69  94 W6        29.99R THUNDER
WAHOO          LGT RAIN  73  70  92 SE7       29.96S
$$



USA.gov is the U.S. government's official web portal to all federal, state and local government web resources and services.